OBJECT J, 59781

Orbit data source: Space-Track

You're viewing an Uncataloged Satellite

Recently launched and/or uncataloged satellites may have evolving metadata. Metadata may include but not limited to: Owner, Maufacturer, Bus, Motor, and Mission.

OBJECT J, 59781 is a satellite owned by Byuro 1440 (CIS) in SSO that was launched on Thu, 16 May 2024 UTC via a SOYUZ-2-1B launch vehicle from the Plesetsk Missile And Space Complex (PKMTR). Unknown objects in Earth's orbit typically refer to objects detected orbiting the Earth but have not yet been identified or cataloged. These objects could be anything from previously untracked satellites, spent rocket stages, debris from satellite collisions, or even natural meteoroids temporarily captured by Earth's gravity.

Loading next visibility...
Identifier
59781, 2024-092J
Orbit
SSO
Country
Flag of CISCIS
Related business
Flag of RUBureau 1440 (RU)
Manufacturer
Byuro 1440
Mission
Operational Commercial Communications
Bus & Motor
RASSVET-2, Unknown motor
Mass
~200 kg wet, ~200 kg dry
Launch date (UTC)
2024-05-16 (2 years ago)
Launch vehicle
SOYUZ-2-1B
Launch site
Plesetsk Missile And Space Complex (PKMTR)
Object type
Unknown
Shape & HBR
Box + 2 Pan, 2.5 m
Radar Cross Section
1.622 m², Medium (>0.1 m² and < 1m²)

Expand to show TLE details & history
Last TLE update: 8 hours ago

TLE from 8 hours ago
0 OBJECT J
1 59781U 24092J   25343.56359402  .00000482  00000-0  19721-3 0  9995
2 59781  98.6525  98.0500 0012924  51.4740 308.7600 14.31738432 81760
Epoch: 2025-12-09T13:31Z
TLE epoch observation values (Epoch: 2025-12-09T13:31:34.523Z)
Latitude
0.00002°
Longitude
176.60968°
Altitude
783.068 km
Speed
7.465 km/s
True Right ascension
06h 32m 11s
True Declination
0° 00' 00"
Sunlit
Object was in full shadow at epoch
Visualization orbit readout
Latitude
Unknown
Longitude
Unknown
Altitude
Unknown
Speed
Unknown
Apparent Right ascension
Unknown
Apparent Declination
Unknown
Sunlit
N/A
Visualization observer readout
Local Sidereal Time
19:55:58
Azimuth
Unknown
Elevation
Unknown
Doppler factor
Unknown
Orbital elements
Apogee altitude
792.321 km
Perigee altitude
773.811 km
Semi-major axis
7,161.203 km
Eccentricity
0.00129
Inclination
98.6525°
RAAN
98.05°
Arg. of periapsis
51.474°
True anomaly
308.6444°
Mean anomaly
308.76°
Eccentric anomaly
308.70221°
Mean motion
3.58149 °/min
Orbital period
100.52 mins
BSTAR
0.00019721
Loading maneuver chart data...
Computing Atmospheric mass density...
Loading historical data...
Loading historical data...
Loading historical data...
Loading historical data...
Loading historical data...
Loading historical data...
Loading historical data...

Documentation

Showing up to 5 results
|